Showing default

ORBCOMM FM 13, 25420

Orbit data source: Space-Track

ORBCOMM FM 13, 25420 is a payload satellite owned by Orbcomm (US) in LEO that was launched on Sun, 02 Aug 1998 UTC via a PEGASUS XL/HAPS launch vehicle from the Pegasus Launch, Eastern Range Air Space (ERAS). Payload-class satellites include a variety of spacecraft equipped with specific instruments for various scientific and technological missions. These include communications satellites like Starlink; space stations such as the ISS; scientific satellites like the Hubble; Earth observation satellites from companies like Planet Labs, Umbra, and HawkEye 360; GPS; miniature CubeSats for education and research; and military/defense satellites.

Loading next visibility...
Identifier
25420, 1998-046H
Orbit
LEO
Country
Flag of USUS / ORB
Related business
Manufacturer
OSC-Germantown
Mission
Non-operational Commercial Communications
Bus & Motor
MICROSTAR, Unknown motor
Mass
42 kg wet, 42 kg dry
Launch date (UTC)
1998-08-02 (28 years ago)
Launch vehicle
PEGASUS XL/HAPS
Launch site
Pegasus Launch, Eastern Range Air Space (ERAS)
Object type
Payload
Rocket body
Debris
Shape & HBR
Cyl + 2 Pan, 4.2 m
Radar Cross Section
1.484 m², Medium (>0.1 m² and < 1m²)

Expand to show TLE details & history
Last TLE update: 2 days ago

TLE from 2 days ago
0 ORBCOMM FM 13
1 25420U 98046H   26171.45630139  .00000401  00000-0  17575-3 0  9991
2 25420  44.9962 237.5251 0005642 303.3374  56.6934 14.38641462456258
Epoch: 2026-06-20T10:57Z
TLE epoch observation values (Epoch: 2026-06-20T10:57:04.440Z)
Latitude
Longitude
164.58594°
Altitude
760.778 km
Speed
7.477 km/s
True Right ascension
15h 50m 06s
True Declination
0° 00' 00"
Sunlit
Object was in full shadow at epoch
Visualization orbit readout
Latitude
Unknown
Longitude
Unknown
Altitude
Unknown
Speed
Unknown
Apparent Right ascension
Unknown
Apparent Declination
Unknown
Sunlit
N/A
Visualization observer readout
Local Sidereal Time
23:20:28
Azimuth
Unknown
Elevation
Unknown
Doppler factor
Unknown
Orbital elements
Apogee altitude
768.568 km
Perigee altitude
760.508 km
Semi-major axis
7,142.675 km
Eccentricity
0.00056
Inclination
44.9962°
RAAN
237.5251°
Arg. of periapsis
303.3374°
True anomaly
56.74745°
Mean anomaly
56.6934°
Eccentric anomaly
56.72042°
Mean motion
3.59544 °/min
Orbital period
100.13 mins
BSTAR
0.00017575
Loading maneuver chart data...
Computing Atmospheric mass density...

Documentation

Showing up to 5 results
|